Peru, IL

5:56 AM CDT on August 23, 2017 (GMT -0500)
Illinois Valley Regional-Duncan

Weather History for KVYS - March, 2013

Change the Weather History Date:

Saturday, March 16, 2013

  Actual Average Record
Temperature  
Mean Temperature 32 °F -  
Max Temperature 35 °F 47 °F 80 °F (2012)
Min Temperature 30 °F 26 °F 11 °F (1970)
Degree Days  
Heating Degree Days 32    
Moisture  
Dew Point 30 °F    
Average Humidity 87    
Maximum Humidity 100    
Minimum Humidity 75    
Precipitation  
Precipitation 0.00 in - - ()
Sea Level Pressure  
Sea Level Pressure 29.93 in    
Wind  
Wind Speed 12 mph (NE)    
Max Wind Speed 17 mph    
Max Gust Speed 21 mph    
Visibility 8 miles    
Events      
Averages and records for this station are not official NWS values.
T = Trace of Precipitation, MM = Missing Value Source: NWS Daily Summary

Daily Weather History Graph

Daily Weather History Graph

Search for Another Location

Airport or City:

Trip Planner

Search our weather history database for the weather conditions in past years. The results will help you decide how hot, cold, wet, or windy it might be!

Date:

Astronomy

Mar. 16, 2013 Rise Set
Actual Time 7:06 AM CDT 7:04 PM CDT
Civil Twilight 6:38 AM CDT 7:32 PM CDT
Nautical Twilight 6:06 AM CDT 8:04 PM CDT
Astronomical Twilight 5:34 AM CDT 8:37 PM CDT
Moon 9:32 AM CDT (3/16) No Moon Set
Length of Visible Light 12h 53m
Length of Day
11h 58m
Waxing Crescent, 23% of the Moon is Illuminated
Mar 16
Waxing Crescent
Mar 19
First Quarter
Mar 27
Full
Apr 2
Last Quarter
Apr 10
New

Hourly Weather History & Observations

Time (CDT) Temp. Windchill Dew Point Humidity Pressure Visibility Wind Dir Wind Speed Gust Speed Precip Events Conditions
12:15 AM 35.1 °F 25.5 °F 34.2 °F 97% 29.72 in 1.5 mi ENE 15.0 mph - N/A   Overcast
12:35 AM 34.9 °F 25.3 °F 34.0 °F 97% 29.71 in 1.5 mi NE 15.0 mph - N/A   Overcast
12:55 AM 34.7 °F 25.9 °F 33.8 °F 97% 29.72 in 1.8 mi ENE 12.7 mph - N/A   Overcast
1:15 AM 34.7 °F 25.1 °F 33.8 °F 97% 29.71 in 1.5 mi NE 15.0 mph 19.6 mph N/A   Overcast
1:35 AM 34.3 °F 25.0 °F 33.4 °F 97% 29.71 in 1.8 mi NE 13.8 mph - N/A   Overcast
1:55 AM 34.7 °F 26.9 °F 33.4 °F 95% 29.70 in 1.8 mi ENE 10.4 mph - N/A   Overcast
2:15 AM 34.7 °F 26.4 °F 33.6 °F 96% 29.71 in 2.0 mi NE 11.5 mph 16.1 mph N/A   Overcast
2:35 AM 35.6 °F 27.5 °F 33.8 °F 93% 29.72 in 2.0 mi NE 11.5 mph - N/A   Overcast
2:55 AM 34.7 °F 25.1 °F 33.4 °F 95% 29.73 in 2.5 mi NE 15.0 mph - N/A   Overcast
3:15 AM 34.7 °F 25.5 °F 33.4 °F 95% 29.73 in 4.0 mi NE 13.8 mph - N/A   Overcast
3:35 AM 33.8 °F 25.8 °F 33.8 °F 100% 29.72 in 4.0 mi NE 10.4 mph - N/A   Overcast
3:55 AM 34.3 °F 27.0 °F 33.1 °F 95% 29.72 in 4.0 mi NE 9.2 mph - N/A   Overcast
4:15 AM 34.3 °F 25.9 °F 33.3 °F 96% 29.72 in 4.0 mi NE 11.5 mph - N/A   Overcast
4:35 AM 34.3 °F 25.5 °F 33.1 °F 95% 29.73 in 5.0 mi ENE 12.7 mph 17.3 mph N/A   Overcast
4:55 AM 34.3 °F 25.5 °F 32.9 °F 94% 29.74 in 7.0 mi ENE 12.7 mph - N/A   Overcast
5:15 AM 34.3 °F 25.9 °F 32.9 °F 94% 29.75 in 7.0 mi ENE 11.5 mph - N/A   Overcast
5:35 AM 34.3 °F 26.5 °F 32.5 °F 93% 29.75 in 7.0 mi ENE 10.4 mph - N/A   Overcast
5:55 AM 34.3 °F 26.5 °F 32.5 °F 93% 29.77 in 5.0 mi ENE 10.4 mph - N/A   Overcast
6:15 AM 34.3 °F 25.5 °F 32.9 °F 94% 29.77 in 4.0 mi ENE 12.7 mph - N/A   Overcast
6:35 AM 33.8 °F 25.8 °F 33.8 °F 100% 29.79 in 2.5 mi ENE 10.4 mph - N/A   Overcast
6:55 AM 34.2 °F 29.0 °F 32.9 °F 95% 29.78 in 3.0 mi NE 5.8 mph - N/A   Overcast
7:15 AM 34.0 °F 28.0 °F 32.9 °F 96% 29.80 in 4.0 mi NNE 6.9 mph - N/A   Overcast
7:35 AM 33.6 °F 25.6 °F 32.5 °F 96% 29.83 in 5.0 mi West 10.4 mph - N/A   Overcast
7:55 AM 33.4 °F 23.1 °F 32.2 °F 95% 29.84 in 5.0 mi NE 16.1 mph - N/A   Overcast
8:15 AM 33.1 °F 23.0 °F 32.0 °F 96% 29.86 in 7.0 mi North 15.0 mph - N/A   Overcast
8:35 AM 32.5 °F 23.2 °F 31.6 °F 96% 29.88 in 10.0 mi NNE 12.7 mph 18.4 mph N/A   Overcast
8:55 AM 32.5 °F 21.9 °F 31.1 °F 94% 29.89 in 10.0 mi West 16.1 mph 19.6 mph N/A   Overcast
9:15 AM 32.5 °F 23.2 °F 31.1 °F 94% 29.90 in 7.0 mi NE 12.7 mph 18.4 mph N/A   Overcast
9:35 AM 32.5 °F 22.7 °F 30.9 °F 94% 29.91 in 10.0 mi ENE 13.8 mph - N/A   Overcast
9:55 AM 32.5 °F 22.7 °F 30.9 °F 94% 29.91 in 10.0 mi ENE 13.8 mph 20.7 mph N/A   Overcast
10:15 AM 32.9 °F 22.4 °F 31.1 °F 93% 29.93 in 10.0 mi ENE 16.1 mph 20.7 mph N/A   Overcast
10:35 AM 32.0 °F 21.2 °F 30.2 °F 93% 29.94 in 10.0 mi ENE 16.1 mph - N/A   Overcast
10:55 AM 33.1 °F 22.6 °F 30.4 °F 90% 29.95 in 10.0 mi NE 16.1 mph - N/A   Overcast
11:15 AM 33.4 °F 23.1 °F 29.8 °F 87% 29.96 in 10.0 mi WNW 16.1 mph - N/A   Overcast
11:35 AM 33.6 °F 24.6 °F 30.4 °F 88% 29.97 in 10.0 mi ENE 12.7 mph - N/A   Overcast
11:55 AM 34.9 °F 24.6 °F 30.9 °F 85% 29.98 in 10.0 mi West 17.3 mph - N/A   Overcast
12:15 PM 34.3 °F 25.5 °F 30.6 °F 86% 29.99 in 10.0 mi ENE 12.7 mph - N/A   Overcast
12:35 PM 33.8 °F 23.5 °F 30.2 °F 87% 29.99 in 10.0 mi WNW 16.1 mph - N/A   Overcast
12:55 PM 34.3 °F 24.6 °F 30.4 °F 85% 30.00 in 10.0 mi West 15.0 mph - N/A   Overcast
1:15 PM 33.8 °F 23.2 °F 29.7 °F 85% 30.00 in 10.0 mi WNW 17.3 mph - N/A   Overcast
1:35 PM 34.3 °F 25.0 °F 29.8 °F 84% 30.00 in 10.0 mi ENE 13.8 mph - N/A   Overcast
1:55 PM 34.9 °F 25.7 °F 29.8 °F 82% 29.99 in 10.0 mi ENE 13.8 mph 17.3 mph N/A   Overcast
2:15 PM 34.5 °F 24.5 °F 29.1 °F 81% 30.00 in 10.0 mi East 16.1 mph 19.6 mph N/A   Overcast
2:35 PM 35.6 °F 26.6 °F 30.2 °F 81% 30.00 in 10.0 mi ENE 13.8 mph 19.6 mph N/A   Overcast
2:55 PM 35.1 °F 26.4 °F 29.3 °F 80% 30.01 in 10.0 mi ENE 12.7 mph 16.1 mph N/A   Overcast
3:15 PM 34.5 °F 25.7 °F 28.4 °F 78% 30.02 in 10.0 mi WNW 12.7 mph - N/A   Overcast
3:35 PM 34.3 °F 25.5 °F 28.0 °F 78% 30.02 in 10.0 mi ENE 12.7 mph - N/A   Overcast
3:55 PM 34.3 °F 25.0 °F 28.0 °F 78% 30.03 in 10.0 mi ENE 13.8 mph - N/A   Overcast
4:15 PM 34.2 °F 26.8 °F 28.0 °F 78% 30.03 in 10.0 mi ENE 9.2 mph - N/A   Overcast
4:35 PM 33.8 °F 25.8 °F 27.5 °F 78% 30.04 in 10.0 mi NNE 10.4 mph - N/A   Overcast
4:55 PM 33.1 °F 23.9 °F 27.0 °F 78% 30.04 in 10.0 mi East 12.7 mph - N/A   Overcast
5:15 PM 32.5 °F 24.2 °F 26.2 °F 78% 30.05 in 10.0 mi ENE 10.4 mph - N/A   Overcast
5:35 PM 32.0 °F 25.6 °F 24.8 °F 75% 30.05 in 10.0 mi ENE 6.9 mph - N/A   Overcast
5:55 PM 32.2 °F 25.0 °F 26.1 °F 78% 30.05 in 10.0 mi NE 8.1 mph - N/A   Overcast
6:15 PM 32.0 °F 26.4 °F 25.5 °F 77% 30.05 in 10.0 mi ENE 5.8 mph - N/A   Overcast
6:35 PM 32.0 °F 25.6 °F 25.3 °F 76% 30.06 in 10.0 mi WNW 6.9 mph - N/A   Overcast
6:55 PM 32.0 °F 25.6 °F 25.5 °F 77% 30.06 in 10.0 mi ENE 6.9 mph - N/A   Overcast
7:15 PM 32.0 °F 26.4 °F 25.3 °F 76% 30.07 in 10.0 mi WNW 5.8 mph - N/A   Overcast
7:35 PM 31.8 °F 26.2 °F 24.8 °F 75% 30.08 in 10.0 mi WNW 5.8 mph - N/A   Overcast
7:55 PM 32.0 °F 27.5 °F 24.8 °F 75% 30.08 in 10.0 mi West 4.6 mph - N/A   Overcast
8:15 PM 31.3 °F 24.7 °F 24.8 °F 77% 30.09 in 10.0 mi WNW 6.9 mph - N/A   Mostly Cloudy
8:35 PM 30.9 °F - 24.6 °F 77% 30.10 in 10.0 mi Calm Calm - N/A   Scattered Clouds
8:55 PM 30.6 °F 25.8 °F 24.8 °F 79% 30.10 in 10.0 mi West 4.6 mph - N/A   Clear
9:15 PM 30.7 °F - 24.6 °F 78% 30.11 in 10.0 mi Calm Calm - N/A   Clear
9:35 PM 30.6 °F 25.8 °F 25.2 °F 80% 30.11 in 10.0 mi West 4.6 mph - N/A   Clear
9:55 PM 30.9 °F 26.2 °F 25.2 °F 79% 30.12 in 10.0 mi West 4.6 mph - N/A   Scattered Clouds
10:15 PM 30.9 °F 27.5 °F 25.2 °F 79% 30.12 in 10.0 mi ENE 3.5 mph - N/A   Scattered Clouds
10:35 PM 30.2 °F 26.7 °F 24.8 °F 80% 30.12 in 10.0 mi ENE 3.5 mph - N/A   Mostly Cloudy
10:55 PM 30.9 °F 27.5 °F 24.8 °F 78% 30.12 in 10.0 mi ENE 3.5 mph - N/A   Overcast
11:15 PM 30.9 °F 27.5 °F 24.8 °F 78% 30.12 in 10.0 mi ENE 3.5 mph - N/A   Mostly Cloudy
11:35 PM 30.6 °F 27.1 °F 25.0 °F 80% 30.12 in 10.0 mi ENE 3.5 mph - N/A   Mostly Cloudy
11:55 PM 30.9 °F 26.2 °F 25.5 °F 80% 30.12 in 10.0 mi ENE 4.6 mph - N/A   Scattered Clouds